Regional Weather Roundup
Issued by NWS Wilmington, NC

Home | Current Version | Previous Version | Text Only | Print | Product List | Glossary On
Versions: 1 2 3 4 5 6 7 8 9 10 11 12 13 14 15 16 17 18 19 20 21 22 23 24 25 26 27 28 29 30 31 32 33 34 35 36 37 38 39 40 41 42 43 44 45 46 47 48 49 50
000
ASUS42 KILM 220210
RWRILM
RWRILM
REGIONAL HOURLY WEATHER ROUNDUP
NATIONAL WEATHER SERVICE WILMINGTON NC
900 PM EST FRI NOV 21 2014

NOTE: "FAIR" INDICATES FEW OR NO CLOUDS BELOW 12,000 FEET WITH NO
SIGNIFICANT WEATHER AND/OR OBSTRUCTIONS TO VISIBILITY.

...............WFO WILMINGTON COUNTY WARNING AREA...............

......COASTAL NC AND SC COUNTIES......

CITY           SKY/WX    TMP DP  RH WIND       PRES   REMARKS
WILMINGTON     CLEAR     37  18  46 NE10      30.52R WCI  30
SOUTHPORT      CLEAR     42  17  35 NE7       30.51R
N MYRTLE BEACH CLEAR     43  20  39 NE13      30.49R
MYRTLE BEACH   CLEAR     46  18  31 NE13      30.49R

......INLAND NC AND SC COUNTIES.......

CITY           SKY/WX    TMP DP  RH WIND       PRES   REMARKS
LUMBERTON      CLEAR     41  12  30 E6        30.51R
ELIZABETHTOWN  CLEAR     38  16  41 CALM      30.52R
WHITEVILLE     CLEAR     41  18  38 NE8       30.52R
FLORENCE       CLEAR     43  17  35 E10       30.49R
DARLINGTON     CLEAR     37  19  48 E8        30.51R WCI  31

....................REST OF NORTH CAROLINA......................

.........EASTERN NC.........

CITY           SKY/WX    TMP DP  RH WIND       PRES   REMARKS
CAPE HATTERAS  CLEAR     40  24  53 NE8G17    30.54R WCI  34
JACKSONVILLE   CLEAR     30  21  69 CALM      30.55R
MOREHEAD CITY  CLEAR     37  23  56 NE5       30.54R WCI  33
KENANSVILLE    CLEAR     32  16  52 CALM      30.55R
NEW BERN       CLEAR     37  20  50 NE6       30.56R WCI  32
ELIZABETH CITY CLEAR     38  19  46 N6        30.57R WCI  33

.........CENTRAL NC.........

CITY           SKY/WX    TMP DP  RH WIND       PRES   REMARKS
RALEIGH DURHAM CLEAR     33  13  43 E3        30.53R
ROCKY MOUNT    CLEAR     28  18  66 CALM      30.55R
ROANOKE RAPIDS NOT AVBL
FAYETTEVILLE   CLEAR     36  13  38 E5        30.52R WCI  32
HOFFMAN        CLEAR     30  25  83 CALM      30.53R

.........WESTERN NC.........

CITY           SKY/WX    TMP DP  RH WIND       PRES   REMARKS
CHARLOTTE      CLEAR     45   8  22 E7        30.48R
GREENSBORO     CLEAR     35  12  38 CALM      30.49R
HICKORY        NOT AVBL
BOONE          NOT AVBL
ASHEVILLE      NOT AVBL

.....................REST OF SOUTH CAROLINA.....................

.........EASTERN SC.........

CITY           SKY/WX    TMP DP  RH WIND       PRES   REMARKS
CHARLESTON     CLEAR     46  36  68 NE6       30.46R
BEAUFORT MCAS  CLEAR     50  44  80 NE6       30.44R
HILTON HEAD    CLEAR     55  48  76 N7        30.43S

.........CENTRAL SC.........

CITY           SKY/WX    TMP DP  RH WIND       PRES   REMARKS
COLUMBIA       CLEAR     48  26  42 E5        30.46R
ORANGEBURG     CLEAR     49  24  37 E6        30.45R
SUMTER SHAW    CLEAR     39  23  53 NE7       30.46R WCI  34

.........WESTERN SC.........

CITY           SKY/WX    TMP DP  RH WIND       PRES   REMARKS
GREENVILLE     NOT AVBL
ROCK HILL      CLEAR     35  22  58 CALM      30.48R
ANDERSON       CLEAR     43  28  55 E7        30.43R
CLEMSON        NOT AVBL
GREENWOOD      CLEAR     38  28  67 CALM      30.45R


...................COASTAL AND OFFSHORE REPORTS..................

................LOCAL PIERS AND NC RESERVE................


STATION/POSITION TIME  SKY/WX   TEMP    WIND        PRES    VSBY
                                AIR SEA DIR/SP/G
                 (UTC)          (F)     (DEG/KT/KT) (MB)    (MI)
JOHNY MRCER PIER 0200               60   30/ 19/ 22 1032.6S
NC RESRV MASNBRO 0100            45      20/  6     1032.0S
OCEAN CREST PIER 0200            44 56  360/  9/ 12 1032.0R
SPRINGMAID  PIER 0200            50 56   30/ 17/ 19 1032.3R


................COASTAL AND OFFSHORE BUOYS................


STATION/POSITION TIME  SKY/WX   TEMP    WIND        PRES    VSBY
                                AIR SEA DIR/SP/G
                 (UTC)          (F)     (DEG/KT/KT) (MB)    (MI)
DIMNDSHOAL 41025 0200            45     360/ 17/ 21 1033.3R
WVE H/P(F/S)=  5/ 7 WND WVE H/P(F/S)=  5/ 7

CAPE LOOKOUT     0100            43      20/ 11/ 13 1033.4R
ONSLOW BAY 41036 0200            48 69   30/ 16/ 21 1032.6R
WVE H/P(F/S)=  3/ 4 WND WVE H/P(F/S)=  3/ 4 SWL H/P/D(F/S/D)=  2/140/ 8

5 WRITEBCH 41038 0100            47 60   30/ 19/ 21 1032.5R
MASONBORO  41110 0200               60                N/A
WVE H/P(F/S)=  3/ 4 WND WVE H/P(F/S)=  3/ 4

WILM HARBR 41108 0200               61                N/A
WVE H/P(F/S)=  3/ 4 WND WVE H/P(F/S)=  3/ 4

27WRITEBCH 41037 0100            49 69   40/ 14/ 17 1032.5R
FRYING PAN 41013 0200            54 63   40/ 16/ 19 1032.3R
WVE H/P(F/S)=  3/ 5 WND WVE H/P(F/S)=  3/ 5 SWL H/P/D(F/S/D)=  2/120/ 9

SUNST NRSH 41024 NOT AVBL
CAPRS NRSH 41029 0100            57      70/ 17/ 21   N/A
EDISTO     41004 0200            61 75   50/ 17/ 21 1030.0R
WVE H/P(F/S)=  4/ 6 WND WVE H/P(F/S)=  3/ 6 SWL H/P/D(F/S/D)=  2/ 9



..........OFFSHORE BUOYS BEYOND 100 NM OFFSHORE...........
.....IN A TRIANGLE---HAT TO BERMUDA TO BAHAMAS TO HAT.....


STATION/POSITION TIME  SKY/WX   TEMP    WIND        PRES    VSBY
                                AIR SEA DIR/SP/G
                 (UTC)          (F)     (DEG/KT/KT) (MB)    (MI)
150E HAT   41001 NOT AVBL
W BERMUDA  41048 0117            67 75  320/ 16/ 21 1026.1R
WVE H/P(F/S)=  9/ 8 WND WVE H/P(F/S)=  7/ 6 SWL H/P/D(F/S/D)=  5/310/ 8

ATLANTIC S 41049 0144            80 79   10/ 12/ 14 1021.2S
WVE H/P(F/S)=  5/ 9 WND WVE H/P(F/S)=  2/ 4 SWL H/P/D(F/S/D)=  5/110/ 9

E BAHAMAS  41046 0146            81 82   70/ 14/ 16 1019.9R
WVE H/P(F/S)=  6/ 8 WND WVE H/P(F/S)=  3/ 6 SWL H/P/D(F/S/D)=  5/ 70/ 8

NE BAHAMAS 41047 0101            75 78   50/ 21/ 25 1023.6R
WVE H/P(F/S)=  7/ 6 WND WVE H/P(F/S)=  7/ 6

120E CANVRL41010 0200            73 78   60/ 19/ 25 1025.4S
WVE H/P(F/S)=  6/ 5 WND WVE H/P(F/S)=  5/ 5


END


USA.gov is the U.S. government's official web portal to all federal, state and local government web resources and services.